Theta_e
327 327 330 331 331 331 332 332 332 329 333 332 334 338 343 342 343 343 346 346 344 344 342 342 343 343 343 343 343 343 346 344 345 345 345 346 346 344 342 341 342 343 342 342
333 332 332 333 332 332 332 332 331 332 333 332 331 337 341 342 341 344 345 346 344 345 344 343 342 343 343 343 344 344 343 344 344 344 344 343 344 344 343 341 343 343 342 343
328 332 333 333 331 331 331 332 332 333 332 333 335 339 341 341 340 342 343 344 344 344 345 344 343 343 344 343 343 343 344 344 344 344 343 341 343 345 344 343 343 343 343 343
329 333 333 328 327 330 331 331 332 333 333 335 335 337 339 340 340 341 342 341 341 341 342 343 343 343 342 342 342 342 342 341 340 342 341 342 343 342 341 342 343 343 343 343
332 331 328 328 330 332 334 333 332 334 334 334 336 338 339 339 339 340 340 339 338 337 338 338 339 340 342 342 342 342 341 342 341 340 338 341 343 342 341 342 343 343 343 343
330 329 328 328 329 330 331 336 331 332 333 337 338 340 338 339 339 341 340 337 336 336 337 334 339 342 341 342 341 341 341 341 341 339 339 341 341 342 341 340 340 341 342 341
332 331 330 328 331 331 337 333 332 333 334 337 339 339 338 337 339 339 337 335 334 333 336 335 332 335 335 336 337 336 339 340 339 339 339 340 339 340 340 340 341 340 341 341
330 331 327 326 332 335 333 332 332 334 335 338 337 337 335 339 339 335 335 334 333 334 333 335 330 330 333 329 330 331 334 331 335 338 340 340 340 340 340 341 340 339 339 338
330 328 328 330 332 331 330 331 333 334 335 337 337 333 336 336 334 334 335 330 334 335 335 334 336 332 330 335 340 340 339 340 337 337 338 340 340 340 339 339 338 337 335 334
328 327 325 325 330 327 329 331 331 334 336 336 334 336 333 331 329 331 334 334 334 335 336 338 337 336 336 337 336 336 337 337 338 338 338 337 337 337 336 335 334 333 327 323
329 327 327 326 327 327 330 329 331 330 330 336 334 333 330 329 330 327 334 335 333 335 335 335 336 337 337 337 336 335 335 334 334 334 335 335 335 334 333 332 331 327 322 321
327 331 332 330 326 329 329 331 329 330 334 334 333 331 331 331 332 333 333 332 333 333 334 334 334 334 334 334 334 334 334 333 332 332 332 332 332 331 329 328 327 325 322 321
330 326 327 327 329 330 331 329 329 330 329 332 334 334 331 331 331 332 332 331 331 332 332 332 332 332 331 332 333 332 332 332 332 331 330 329 326 324 324 322 323 324 318 320
324 326 328 327 329 330 330 328 330 329 330 332 333 332 329 327 327 329 330 330 329 330 330 330 330 332 331 331 331 331 330 329 330 329 328 327 326 325 324 321 319 318 319 318
323 326 327 328 328 329 328 330 330 333 331 334 334 332 330 329 327 328 328 328 328 329 328 328 330 331 331 330 330 330 329 329 328 322 316 314 313 311 313 313 314 314 315 316
324 326 326 327 327 328 327 327 331 333 335 335 335 333 332 330 327 327 328 328 327 328 327 328 327 328 327 329 327 326 326 324 321 316 314 315 312 312 311 310 311 311 313 314
325 326 325 326 327 328 327 325 324 325 330 334 334 334 333 330 327 326 327 327 327 326 325 326 326 327 324 324 323 321 319 319 318 316 315 315 315 315 314 313 313 313 313 313
325 324 325 325 325 326 326 325 325 324 326 331 334 334 334 331 326 323 322 324 325 325 325 325 326 327 322 320 318 317 317 316 316 315 315 316 316 316 316 316 316 316 316 315
325 325 325 325 325 325 325 325 325 325 325 328 331 335 334 332 327 323 321 323 324 325 323 323 325 326 320 318 318 317 318 317 315 314 315 315 315 315 316 316 316 317 317 317
323 324 324 323 323 323 323 323 323 323 325 326 329 333 335 333 327 323 320 321 321 322 323 323 321 320 321 318 320 320 319 319 319 318 317 317 318 318 318 319 318 317 317 317
324 323 323 322 323 323 323 323 322 323 324 326 328 330 332 333 327 325 323 323 321 323 325 323 321 318 318 318 320 320 320 321 321 320 320 319 319 319 319 319 318 319 319 318
325 324 323 323 324 325 324 323 323 323 324 324 328 330 332 334 328 326 325 324 321 320 323 324 323 321 318 317 319 320 322 321 322 321 321 320 320 319 319 319 319 319 318 318
325 325 325 325 325 324 324 324 325 324 324 324 324 328 328 330 331 328 327 325 324 321 320 321 320 321 321 320 320 320 320 319 321 321 320 319 319 319 319 319 319 319 318 317
327 327 326 325 324 324 324 324 323 323 323 324 324 326 327 328 332 330 329 327 326 325 321 320 317 318 321 321 319 318 318 317 317 320 321 320 318 319 319 320 318 317 316 316
321 321 322 326 327 326 325 325 325 325 324 323 323 324 324 328 328 329 330 329 326 325 319 317 318 320 321 321 320 319 318 319 319 320 321 321 320 319 318 317 316 316 316 317
323 322 323 324 325 326 326 325 325 325 325 324 323 323 324 325 327 327 330 330 328 324 321 319 321 322 323 323 323 320 319 319 320 320 320 321 320 319 318 317 315 313 312 311
320 320 321 323 325 326 326 327 327 326 326 325 325 326 325 324 326 327 328 330 329 325 323 323 322 322 324 324 324 323 320 321 321 321 323 322 319 318 316 314 313 313 312 313
Wind_Speed
3 1 3 2 4 6 7 5 7 10 8 12 6 7 7 7 7 6 3 3 4 7 12 16 20 26 34 31 28 25 24 24 24 25 25 24 22 20 19 20 20 21 20 17
4 2 1 5 6 7 9 9 11 15 17 8 10 8 8 7 5 6 3 3 5 7 10 13 15 20 28 31 23 22 19 20 19 19 21 22 24 23 21 21 21 20 20 19
6 2 2 8 13 13 9 9 8 10 11 2 6 9 7 5 5 3 4 5 3 2 6 8 12 17 21 23 21 18 17 16 16 19 19 18 21 23 22 21 21 19 17 17
2 5 6 6 2 4 10 10 10 12 10 8 7 5 4 5 5 4 2 5 3 2 1 6 9 12 16 19 18 17 16 17 15 14 18 17 17 17 18 18 19 18 18 17
3 6 5 8 5 6 7 9 4 12 11 9 4 2 8 4 3 2 2 7 9 7 4 1 8 14 15 16 18 18 18 18 19 17 14 14 12 13 11 11 12 12 12 11
3 4 8 4 2 5 4 8 2 5 6 10 8 5 1 5 4 8 8 10 10 7 7 9 5 4 11 10 10 12 14 16 16 15 14 14 14 15 12 9 7 8 9 8
5 5 5 3 3 7 5 3 4 3 6 11 7 1 2 7 8 11 10 12 9 10 9 11 13 16 15 14 15 14 8 13 16 18 16 15 13 13 12 11 11 11 11 10
3 3 6 8 6 5 2 3 3 2 6 11 5 5 9 11 10 11 10 9 8 8 9 7 11 11 20 20 17 11 10 16 13 10 8 16 11 11 10 10 13 11 10 7
7 2 3 12 2 4 3 2 1 5 7 10 8 12 18 16 14 11 4 13 7 5 6 11 14 14 10 2 7 7 8 10 9 7 7 7 8 11 12 9 8 7 6 5
4 4 6 8 10 5 2 0 5 9 12 11 16 20 19 17 18 11 9 9 10 9 11 13 11 12 11 9 8 9 12 13 13 13 15 13 13 12 13 13 11 9 8 8
2 3 2 7 10 8 5 8 11 10 11 13 20 19 21 15 9 4 10 9 10 12 16 17 15 15 13 12 10 9 11 12 12 12 12 12 14 15 13 11 12 12 10 8
3 11 4 6 14 13 11 13 12 18 18 16 18 20 21 18 15 14 12 10 11 11 13 14 14 14 12 11 8 8 12 15 14 14 13 12 12 13 13 12 11 10 9 8
4 14 8 13 15 14 13 15 16 19 19 19 16 14 17 18 15 15 14 12 12 12 11 12 12 11 11 11 11 13 14 14 14 13 13 13 13 12 11 11 10 9 9 9
10 16 9 14 13 16 13 14 16 17 17 16 18 16 15 15 15 13 14 13 13 12 11 10 10 10 11 14 15 15 15 14 15 14 12 11 10 9 9 10 10 10 9 10
14 11 8 13 11 17 14 16 18 18 19 19 18 17 16 15 15 15 14 13 13 13 13 11 11 12 12 12 12 13 15 16 15 15 14 13 11 11 10 10 10 10 10 10
16 16 10 11 15 18 17 15 15 17 18 19 19 18 15 13 14 15 15 15 15 14 14 15 13 12 11 13 14 16 16 16 15 14 13 13 13 13 12 12 12 10 10 10
22 11 11 11 16 18 19 16 12 14 19 20 19 18 17 15 14 14 14 13 13 13 13 16 15 14 12 17 17 17 15 14 13 14 13 14 14 14 13 13 12 12 10 9
15 14 11 10 13 16 19 18 17 15 17 21 22 20 19 18 14 14 15 16 16 15 14 14 16 17 17 17 15 14 13 12 11 13 15 14 12 10 8 7 6 6 4 4
16 14 9 11 10 11 15 18 18 18 16 19 22 22 21 18 14 14 16 17 17 17 18 17 17 18 19 17 15 16 15 14 13 13 13 12 10 7 5 4 4 4 3 3
14 11 11 13 11 12 11 12 14 17 20 19 19 23 25 23 19 18 18 18 17 14 16 16 16 18 21 19 17 14 13 12 12 12 12 11 9 7 6 6 7 7 7 6
23 21 21 15 12 11 11 10 9 12 20 22 22 24 25 27 24 22 20 19 16 16 18 17 17 19 22 20 17 15 14 13 12 11 12 12 13 12 12 11 10 12 12 11
16 20 20 16 13 12 13 12 10 11 15 23 24 26 28 30 28 24 18 12 17 20 22 22 21 21 22 22 20 18 15 15 13 12 12 12 11 11 13 16 17 15 14 13
6 8 11 13 10 7 6 9 13 14 14 17 25 30 29 30 31 31 27 21 18 20 23 23 22 21 21 21 21 20 18 17 15 14 13 14 15 15 13 13 12 12 10 13
8 6 3 4 6 7 8 8 9 11 15 17 20 27 31 32 34 33 29 25 24 19 22 22 21 22 23 23 21 19 17 16 15 13 11 10 10 11 12 10 9 11 12 13
7 5 3 3 6 10 11 12 12 12 15 17 20 22 29 35 34 34 35 32 25 23 23 23 24 24 25 23 21 18 16 17 17 15 14 14 13 11 11 10 11 12 10 10
6 7 7 6 7 11 13 14 14 14 14 17 22 23 25 31 35 34 34 29 29 26 26 27 29 29 27 25 22 19 16 16 16 15 14 14 15 13 12 12 12 10 9 8
6 6 7 7 8 11 12 14 16 18 18 18 19 22 24 27 31 32 33 30 34 32 31 30 31 31 29 27 24 23 21 19 17 16 16 17 15 14 12 12 11 11 10 10
Wind_Direction
197 170 197 221 202 198 228 243 248 289 251 279 284 263 269 285 290 306 301 272 250 235 228 228 227 229 225 219 227 230 222 229 227 231 236 238 237 243 239 235 237 242 244 247
189 170 197 261 255 248 249 250 252 262 272 296 263 249 262 283 292 320 317 290 256 248 247 228 231 231 222 223 226 221 230 220 221 228 233 234 240 241 242 239 237 242 246 249
237 179 234 259 250 233 234 231 241 253 281 215 229 241 252 266 269 291 337 333 280 257 271 239 225 216 205 204 220 218 216 220 226 217 220 226 231 237 243 241 241 241 243 247
232 158 237 274 264 266 239 263 247 260 249 230 233 229 252 255 258 263 342 346 168 118 60 188 195 211 215 207 214 221 226 228 234 223 223 230 233 239 246 246 239 236 238 244
220 229 304 268 209 206 212 277 267 252 253 221 208 244 256 229 245 205 127 93 105 99 85 193 233 230 224 221 229 227 228 230 232 228 225 221 214 219 203 197 199 212 213 196
162 234 262 298 151 169 149 274 60 280 251 193 167 230 19 176 142 128 140 126 118 101 75 53 57 133 194 206 216 228 223 221 226 217 206 212 221 222 220 204 189 191 200 205
198 244 272 237 159 151 226 345 342 282 205 181 189 309 118 149 122 134 136 124 143 125 98 71 69 106 106 102 111 100 120 216 220 208 205 204 209 213 208 215 219 213 220 221
153 216 282 168 143 224 32 349 310 231 178 177 142 125 133 133 129 134 129 126 148 138 149 141 109 112 119 122 115 83 73 87 82 128 184 184 176 182 193 213 212 214 179 202
206 198 107 182 207 217 289 300 287 156 160 165 148 141 127 112 92 73 134 171 228 280 194 166 172 178 190 143 114 124 148 134 150 134 145 144 153 157 158 154 147 138 134 129
178 175 217 207 214 232 256 192 138 151 145 140 141 140 131 124 121 121 212 165 206 154 126 125 159 179 185 131 114 110 110 111 109 116 116 117 119 130 133 136 133 125 117 112
207 225 196 205 202 194 160 136 144 149 149 143 149 148 137 139 141 164 180 166 156 126 116 115 115 112 118 117 109 114 114 112 113 117 118 122 127 129 129 127 132 128 121 117
202 174 147 161 177 173 158 150 143 139 142 147 154 147 157 166 181 175 168 159 149 139 130 125 125 124 119 113 112 125 124 120 121 122 125 126 128 131 132 132 133 132 125 120
130 169 129 149 169 173 163 157 146 148 147 154 166 161 153 154 160 166 167 157 153 147 141 133 132 130 132 134 132 126 124 124 127 137 131 127 125 139 142 142 143 144 135 127
146 157 146 160 178 175 173 163 162 160 160 164 160 160 154 152 153 161 167 162 156 151 147 148 148 142 136 137 138 135 132 131 134 132 130 133 138 136 136 138 140 137 130 131
193 180 186 191 180 172 172 170 165 170 175 175 176 170 166 164 167 167 169 163 156 151 153 152 150 144 146 145 145 143 145 144 141 137 131 128 124 131 133 135 137 133 131 130
185 180 174 184 183 184 182 184 182 182 183 182 183 184 175 171 171 176 175 174 171 167 159 153 154 164 162 161 154 146 140 137 135 130 125 124 117 118 119 123 121 123 130 133
156 166 175 180 191 194 201 203 198 207 200 197 196 186 180 179 182 184 183 177 174 168 169 170 175 179 170 160 154 149 148 146 141 141 133 128 126 123 118 114 115 116 116 117
179 186 213 226 207 211 211 216 219 219 210 203 203 194 190 193 198 195 186 178 175 175 179 178 178 177 173 168 165 161 154 154 152 152 153 148 143 136 139 145 150 146 154 152
202 221 240 228 216 234 230 225 229 230 227 218 210 204 206 201 202 194 190 189 188 187 184 184 181 180 181 177 174 172 163 152 152 160 162 165 167 171 189 211 224 223 237 259
222 236 260 244 223 229 230 237 243 239 227 222 217 211 206 200 197 195 198 201 200 193 193 192 189 188 187 185 181 180 177 172 174 179 184 188 199 218 220 219 222 230 234 242
234 226 237 230 227 231 229 229 235 245 236 228 217 210 210 201 198 199 195 201 199 196 199 198 199 197 194 195 195 192 188 188 191 197 209 217 224 227 229 229 249 250 246 247
224 227 226 228 241 248 239 236 241 250 255 235 222 215 212 207 202 203 201 190 196 199 201 202 203 203 205 205 208 208 206 210 210 212 217 222 228 231 241 247 249 234 235 252
167 191 207 217 217 218 235 252 251 248 254 250 228 217 217 215 211 205 204 193 204 209 212 210 208 204 202 205 210 213 218 222 222 225 229 239 245 246 251 257 249 233 242 257
82 94 136 195 220 240 260 269 264 257 250 248 244 230 223 222 219 218 217 212 214 215 215 214 209 204 203 208 210 213 217 219 218 214 214 221 230 234 239 235 240 256 262 265
42 32 13 312 273 263 264 261 263 264 262 254 248 244 234 231 232 227 221 222 210 213 212 206 202 200 201 205 207 211 219 218 212 215 222 227 223 224 229 246 270 273 259 218
13 1 353 332 298 282 275 275 273 270 270 266 253 251 242 229 230 234 231 225 213 209 208 205 201 202 205 208 210 212 212 211 215 222 231 230 227 233 244 251 238 216 213 222
12 353 337 326 316 309 310 296 284 280 276 272 263 251 242 231 228 233 236 223 215 212 209 209 208 209 211 213 215 218 218 221 226 236 238 230 231 234 231 225 231 229 226 215